Burns, OR

10:20 PM PDT on August 19, 2017 (GMT -0700)
Burns Municipal

Weather History for KBNO - September, 2012

Change the Weather History Date:

Sunday, September 30, 2012

  Actual Average Record
Temperature  
Mean Temperature 59 °F 50 °F  
Max Temperature 82 °F 70 °F 89 °F (2011)
Min Temperature 36 °F 31 °F 23 °F (1981)
Degree Days  
Heating Degree Days 6 14  
Month to date heating degree days 148 281  
Since 1 July heating degree days 188 419  
Cooling Degree Days 0 0  
Month to date cooling degree days 5 9  
Year to date cooling degree days 309 215  
Growing Degree Days 8 (Base 50)    
Moisture  
Dew Point 31 °F    
Average Humidity 45    
Maximum Humidity 79    
Minimum Humidity 11    
Precipitation  
Precipitation 0.00 in 0.02 in 0.57 in (1957)
Month to date precipitation T 0.44  
Year to date precipitation 6.43 7.42  
Sea Level Pressure  
Sea Level Pressure 30.25 in    
Wind  
Wind Speed 6 mph (West)    
Max Wind Speed 13 mph    
Max Gust Speed 18 mph    
Visibility 10 miles    
Events      
T = Trace of Precipitation, MM = Missing Value Source: NWS Daily Summary

Daily Weather History Graph

Daily Weather History Graph

Search for Another Location

Airport or City:

Trip Planner

Search our weather history database for the weather conditions in past years. The results will help you decide how hot, cold, wet, or windy it might be!

Date:

Astronomy

Sep. 30, 2012 Rise Set
Actual Time 6:52 AM PDT 6:37 PM PDT
Civil Twilight 6:24 AM PDT 7:06 PM PDT
Nautical Twilight 5:51 AM PDT 7:39 PM PDT
Astronomical Twilight 5:17 AM PDT 8:12 PM PDT
Moon 6:40 PM PDT (9/30) 7:31 AM PDT (9/30)
Length of Visible Light 12h 41m
Length of Day
11h 44m
Full, 100% of the Moon is Illuminated
Sep 30
Full
Oct 8
Last Quarter
Oct 15
New
Oct 21
First Quarter
Oct 29
Full

Hourly Weather History & Observations

Time (PDT) Temp. Windchill Dew Point Humidity Pressure Visibility Wind Dir Wind Speed Gust Speed Precip Events Conditions
12:53 AM 46.9 °F - 34.0 °F 61% 30.17 in 10.0 mi WSW 6.9 mph - N/A   Clear
1:53 AM 48.0 °F - 35.1 °F 61% 30.17 in 10.0 mi West 6.9 mph - N/A   Clear
2:53 AM 46.9 °F - 34.0 °F 61% 30.19 in 10.0 mi Calm Calm - N/A   Clear
3:53 AM 42.1 °F 37.7 °F 30.9 °F 65% 30.21 in 10.0 mi NNW 6.9 mph - N/A   Clear
4:53 AM 39.9 °F - 30.9 °F 70% 30.22 in 10.0 mi Calm Calm - N/A   Clear
5:53 AM 39.9 °F 35.1 °F 33.1 °F 77% 30.24 in 10.0 mi West 6.9 mph - N/A   Clear
6:53 AM 36.0 °F 33.3 °F 28.9 °F 76% 30.29 in 10.0 mi NNE 3.5 mph - N/A   Clear
7:53 AM 42.1 °F - 30.0 °F 62% 30.31 in 10.0 mi Calm Calm - N/A   Clear
8:53 AM 54.0 °F - 36.0 °F 51% 30.30 in 10.0 mi Calm Calm - N/A   Clear
9:53 AM 60.1 °F - 37.9 °F 44% 30.29 in 10.0 mi Calm Calm - N/A   Clear
10:53 AM 66.0 °F - 39.9 °F 38% 30.29 in 10.0 mi Calm Calm - N/A   Clear
11:53 AM 72.0 °F - 37.0 °F 28% 30.27 in 10.0 mi SSE 5.8 mph - N/A   Clear
12:53 PM 75.0 °F - 33.1 °F 22% 30.26 in 10.0 mi South 5.8 mph - N/A   Clear
1:53 PM 78.1 °F - 30.0 °F 17% 30.23 in 10.0 mi Variable 6.9 mph - N/A   Clear
2:53 PM 80.1 °F - 24.1 °F 13% 30.21 in 10.0 mi South 9.2 mph 18.4 mph N/A   Clear
3:53 PM 80.1 °F - 23.0 °F 12% 30.20 in 10.0 mi WSW 4.6 mph - N/A   Clear
4:53 PM 81.0 °F - 21.9 °F 11% 30.20 in 10.0 mi WNW 9.2 mph - N/A   Clear
5:53 PM 77.0 °F - 28.9 °F 17% 30.22 in 10.0 mi NNW 10.4 mph - N/A   Clear
6:00 PM - - - N/A% - - North - - N/A   Unknown
6:53 PM 68.0 °F - 30.0 °F 24% 30.27 in 10.0 mi NNW 10.4 mph - N/A   Clear
7:53 PM 62.1 °F - 30.0 °F 30% 30.28 in 10.0 mi West 10.4 mph - N/A   Clear
8:53 PM 57.9 °F - 28.0 °F 32% 30.28 in 10.0 mi West 8.1 mph - N/A   Clear
9:53 PM 55.9 °F - 26.1 °F 32% 30.27 in 10.0 mi West 8.1 mph - N/A   Clear
10:53 PM 52.0 °F - 27.0 °F 38% 30.27 in 10.0 mi West 8.1 mph - N/A   Clear
11:53 PM 45.0 °F 41.2 °F 27.0 °F 49% 30.27 in 10.0 mi West 6.9 mph - N/A   Clear